This is the latest recevied weather packets stored in our database for station/object SP1BMW-13. If no packets are shown the sender has not sent any weather packets the latest 10 day(s).
| Time | Temp. | Humidity | Pressure | Rain* | Wind** | Luminosity | Snow |
|---|---|---|---|---|---|---|---|
| 1787416502 | 18.89° C | 58% | 1011.8 hPa | 0 mm | 1.34 m/s, 292° | 55 W/m² | - |
| 1787416442 | 18.89° C | 59% | 1011.7 hPa | 0 mm | 0.45 m/s, 303° | 51 W/m² | - |
| 1787416383 | 19.44° C | 58% | 1011.6 hPa | 0 mm | 0.45 m/s, 238° | 45 W/m² | - |
| 1787416323 | 19.44° C | 58% | 1011.4 hPa | 0 mm | 1.34 m/s, 259° | 41 W/m² | - |
| 1787416262 | 19.44° C | 58% | 1011.5 hPa | 0 mm | 0.45 m/s, 292° | 40 W/m² | - |
| 1787416202 | 19.44° C | 58% | 1011.7 hPa | 0 mm | 0.89 m/s, 262° | 40 W/m² | - |
| 1787416143 | 19.44° C | 58% | 1011.6 hPa | 0 mm | 1.79 m/s, 259° | 42 W/m² | - |
| 1787416082 | 19.44° C | 58% | 1011.5 hPa | 0 mm | 0.45 m/s, 295° | 43 W/m² | - |
| 1787416022 | 19.44° C | 57% | 1011.6 hPa | 0 mm | 1.34 m/s, 290° | 45 W/m² | - |
| 1787415962 | 19.44° C | 57% | 1011.5 hPa | 0 mm | 0.89 m/s, 274° | 46 W/m² | - |
| 1787415902 | 19.44° C | 57% | 1011.6 hPa | 0 mm | 0.89 m/s, 227° | 48 W/m² | - |
| 1787415843 | 19.44° C | 57% | 1011.7 hPa | 0 mm | 1.79 m/s, 233° | 50 W/m² | - |
| 1787415783 | 19.44° C | 57% | 1011.5 hPa | 0 mm | 0.89 m/s, 212° | 51 W/m² | - |
| 1787415722 | 19.44° C | 57% | 1011.6 hPa | 0 mm | 1.34 m/s, 250° | 52 W/m² | - |
| 1787415662 | 19.44° C | 57% | 1011.5 hPa | 0 mm | 0.89 m/s, 282° | 52 W/m² | - |
| 1787415603 | 19.44° C | 57% | 1011.6 hPa | 0 mm | 0.89 m/s, 253° | 52 W/m² | - |
| 1787415542 | 19.44° C | 57% | 1011.4 hPa | 0 mm | 0.89 m/s, 215° | 52 W/m² | - |
| 1787415482 | 19.44° C | 58% | 1011.6 hPa | 0 mm | 1.34 m/s, 113° | 52 W/m² | - |
| 1787415422 | 19.44° C | 57% | 1011.5 hPa | 0 mm | 1.34 m/s, 221° | 50 W/m² | - |
| 1787415362 | 19.44° C | 58% | 1011.4 hPa | 0 mm | 1.79 m/s, 217° | 47 W/m² | - |
| 1787415303 | 19.44° C | 58% | 1011.5 hPa | 0 mm | 1.34 m/s, 285° | 45 W/m² | - |
| 1787415242 | 19.44° C | 58% | 1011.5 hPa | 0 mm | 2.24 m/s, 271° | 45 W/m² | - |
| 1787415182 | 19.44° C | 59% | 1011.6 hPa | 0 mm | 0.89 m/s, 9° | 46 W/m² | - |
| 1787415123 | 19.44° C | 59% | 1011.6 hPa | 0 mm | 0 m/s | 46 W/m² | - |
| 1787415062 | 19.44° C | 59% | 1011.6 hPa | 0 mm | 0.89 m/s, 266° | 45 W/m² | - |
* Rain latest hour (hover to see other rain measurements)
** Current wind speed in m/s (hover to see current wind gust speed)